Weather History for KGDV - March, 2014

Change the Weather History Date:

Monday, March 31, 2014

  Actual Average Record
Temperature  
Mean Temperature 17 °F -  
Max Temperature 26 °F 45 °F 78 °F (2004)
Min Temperature 6 °F 24 °F 6 °F (2009)
Degree Days  
Heating Degree Days 48    
Moisture  
Dew Point 12 °F    
Average Humidity 77    
Maximum Humidity 93    
Minimum Humidity 63    
Precipitation  
Precipitation 0.06 in - - ()
Sea Level Pressure  
Sea Level Pressure 30.09 in    
Wind  
Wind Speed 16 mph (North)    
Max Wind Speed 25 mph    
Max Gust Speed 33 mph    
Visibility 7 miles    
Events      
Averages and records for this station are not official NWS values.
T = Trace of Precipitation, MM = Missing Value Source: NWS Daily Summary

Daily Weather History Graph

Daily Weather History Graph

Search for Another Location

Airport or City:

Trip Planner

Search our weather history database for the weather conditions in past years. The results will help you decide how hot, cold, wet, or windy it might be!

Date:

Astronomy

Mar. 31, 2014 Rise Set
Actual Time 6:40 AM MDT 7:27 PM MDT
Civil Twilight 6:09 AM MDT 7:58 PM MDT
Nautical Twilight 5:32 AM MDT 8:35 PM MDT
Astronomical Twilight 4:54 AM MDT 9:13 PM MDT
Moon 7:01 AM MDT (3/31) 8:55 PM MDT (3/31)
Length of Visible Light 13h 49m
Length of Day
12h 47m
New Moon, 1% of the Moon is Illuminated
Mar 31
New Moon
Apr 7
First Quarter
Apr 15
Full
Apr 22
Last Quarter
Apr 29
New

Hourly Weather History & Observations

Time (MDT) Temp. Windchill Dew Point Humidity Pressure Visibility Wind Dir Wind Speed Gust Speed Precip Events Conditions
12:15 AM 26.6 °F 12.0 °F 23.0 °F 86% 29.87 in 2.5 mi NNE 23.0 mph - N/A   Overcast
12:35 AM 26.6 °F 11.4 °F 21.2 °F 80% 29.88 in 2.5 mi NNE 25.3 mph 29.9 mph N/A   Overcast
12:55 AM 24.8 °F 10.0 °F 21.2 °F 86% 29.90 in 2.5 mi NNE 21.9 mph 29.9 mph N/A   Overcast
1:15 AM 24.8 °F 9.6 °F 21.2 °F 86% 29.91 in 2.5 mi NNE 23.0 mph 29.9 mph N/A   Overcast
1:35 AM 23.0 °F 7.2 °F 19.4 °F 86% 29.91 in 2.0 mi NNE 23.0 mph 31.1 mph N/A   Overcast
1:55 AM 21.2 °F 4.2 °F 17.6 °F 86% 29.93 in 2.0 mi NNE 25.3 mph 31.1 mph N/A   Overcast
2:15 AM 21.2 °F 4.5 °F 17.6 °F 86% 29.94 in 2.0 mi NNE 24.2 mph 33.4 mph N/A   Overcast
2:35 AM 19.4 °F 2.8 °F 17.6 °F 93% 29.95 in 2.0 mi NNE 21.9 mph 27.6 mph N/A   Overcast
2:55 AM 19.4 °F 1.8 °F 15.8 °F 86% 29.96 in 2.0 mi North 25.3 mph 29.9 mph N/A   Overcast
3:15 AM 19.4 °F 4.5 °F 14.0 °F 80% 29.98 in 2.0 mi NNE 17.3 mph 27.6 mph N/A   Overcast
3:35 AM 17.6 °F 1.3 °F 14.0 °F 86% 29.99 in 2.0 mi NNE 19.6 mph - N/A   Overcast
3:55 AM 17.6 °F 0.5 °F 14.0 °F 86% 30.00 in 3.0 mi NNE 21.9 mph - N/A   Overcast
4:15 AM 17.6 °F 1.3 °F 14.0 °F 86% 30.01 in 3.0 mi NNE 19.6 mph 25.3 mph N/A   Overcast
4:35 AM 17.6 °F 3.7 °F 14.0 °F 86% 30.03 in 3.0 mi North 13.8 mph - N/A   Overcast
4:55 AM 17.6 °F 2.7 °F 12.2 °F 79% 30.04 in 2.5 mi North 16.1 mph 19.6 mph N/A   Overcast
5:15 AM 15.8 °F -1.5 °F 10.4 °F 79% 30.05 in 1.8 mi North 20.7 mph 25.3 mph N/A   Overcast
5:35 AM 15.8 °F -0.2 °F 12.2 °F 86% 30.06 in 1.5 mi North 17.3 mph - N/A   Overcast
5:55 AM 15.8 °F -0.2 °F 12.2 °F 86% 30.06 in 1.8 mi North 17.3 mph - N/A   Overcast
6:15 AM 15.8 °F 1.4 °F 10.4 °F 79% 30.07 in 2.5 mi North 13.8 mph 21.9 mph N/A   Overcast
6:35 AM 15.8 °F -0.6 °F 10.4 °F 79% 30.08 in 2.5 mi North 18.4 mph 23.0 mph N/A   Overcast
6:55 AM 15.8 °F -0.6 °F 10.4 °F 79% 30.09 in 1.5 mi North 18.4 mph - N/A   Overcast
7:15 AM 15.8 °F -0.2 °F 10.4 °F 79% 30.09 in 1.8 mi North 17.3 mph - N/A   Overcast
7:35 AM 15.8 °F -0.6 °F 10.4 °F 79% 30.10 in 2.0 mi North 18.4 mph - N/A   Overcast
7:55 AM 15.8 °F -0.6 °F 10.4 °F 79% 30.11 in 2.5 mi North 18.4 mph - N/A   Mostly Cloudy
8:15 AM 15.8 °F -0.2 °F 10.4 °F 79% 30.11 in 5.0 mi North 17.3 mph 20.7 mph N/A   Partly Cloudy
8:35 AM 15.8 °F 0.9 °F 10.4 °F 79% 30.12 in 10.0 mi North 15.0 mph - N/A   Partly Cloudy
8:55 AM 15.8 °F -1.5 °F 10.4 °F 79% 30.13 in 10.0 mi North 20.7 mph - N/A   Mostly Cloudy
9:15 AM 15.8 °F -0.2 °F 10.4 °F 79% 30.13 in 10.0 mi NNE 17.3 mph - N/A   Overcast
9:35 AM 15.8 °F 1.4 °F 10.4 °F 79% 30.14 in 10.0 mi North 13.8 mph - N/A   Overcast
9:55 AM 15.8 °F 0.3 °F 8.6 °F 73% 30.15 in 10.0 mi North 16.1 mph - N/A   Overcast
10:15 AM 15.8 °F -0.2 °F 8.6 °F 73% 30.16 in 10.0 mi North 17.3 mph - N/A   Overcast
10:55 AM 15.8 °F 3.4 °F 6.8 °F 68% 30.17 in 10.0 mi North 10.4 mph - N/A   Overcast
11:15 AM 17.6 °F 5.0 °F 10.4 °F 73% 30.17 in 10.0 mi North 11.5 mph - N/A   Overcast
11:35 AM 17.6 °F 5.7 °F 8.6 °F 68% 30.16 in 10.0 mi NNE 10.4 mph - N/A   Overcast
11:55 AM 19.4 °F 7.9 °F 12.2 °F 74% 30.16 in 10.0 mi North 10.4 mph - N/A   Overcast
12:15 PM 19.4 °F 6.6 °F 12.2 °F 74% 30.15 in 10.0 mi North 12.7 mph - N/A   Overcast
12:35 PM 19.4 °F 7.2 °F 12.2 °F 74% 30.16 in 10.0 mi North 11.5 mph - N/A   Overcast
12:55 PM 19.4 °F 5.5 °F 12.2 °F 74% 30.15 in 10.0 mi North 15.0 mph - N/A   Overcast
1:15 PM 21.2 °F 8.9 °F 14.0 °F 74% 30.14 in 10.0 mi North 12.7 mph - N/A   Overcast
1:35 PM 21.2 °F 9.5 °F 15.8 °F 80% 30.14 in 10.0 mi North 11.5 mph - N/A   Overcast
1:55 PM 21.2 °F 9.5 °F 12.2 °F 68% 30.14 in 10.0 mi North 11.5 mph - N/A   Overcast
2:15 PM 21.2 °F 9.5 °F 12.2 °F 68% 30.14 in 10.0 mi North 11.5 mph - N/A   Mostly Cloudy
2:35 PM 21.2 °F 10.1 °F 14.0 °F 74% 30.14 in 10.0 mi North 10.4 mph - N/A   Partly Cloudy
2:55 PM 21.2 °F 10.1 °F 12.2 °F 68% 30.14 in 10.0 mi North 10.4 mph - N/A   Clear
3:15 PM 21.2 °F 10.1 °F 12.2 °F 68% 30.13 in 10.0 mi North 10.4 mph - N/A   Clear
3:35 PM 23.0 °F 11.7 °F 12.2 °F 63% 30.13 in 10.0 mi North 11.5 mph - N/A   Clear
3:55 PM 23.0 °F 13.1 °F 12.2 °F 63% 30.13 in 10.0 mi North 9.2 mph - N/A   Clear
4:15 PM 21.2 °F 10.9 °F 12.2 °F 68% 30.13 in 10.0 mi NNE 9.2 mph - N/A   Clear
4:35 PM 21.2 °F 12.6 °F 10.4 °F 63% 30.13 in 10.0 mi NNE 6.9 mph - N/A   Clear
4:55 PM 21.2 °F 12.6 °F 10.4 °F 63% 30.13 in 10.0 mi North 6.9 mph - N/A   Clear
5:15 PM 21.2 °F 12.6 °F 10.4 °F 63% 30.13 in 10.0 mi NNE 6.9 mph - N/A   Clear
5:35 PM 21.2 °F 13.6 °F 12.2 °F 68% 30.13 in 10.0 mi NNE 5.8 mph - N/A   Clear
5:55 PM 21.2 °F 13.6 °F 10.4 °F 63% 30.13 in 10.0 mi North 5.8 mph - N/A   Clear
6:15 PM 21.2 °F 14.9 °F 10.4 °F 63% 30.13 in 10.0 mi NNE 4.6 mph - N/A   Clear
6:35 PM 21.2 °F - 10.4 °F 63% 30.13 in 10.0 mi Calm Calm - N/A   Clear
6:55 PM 21.2 °F - 12.2 °F 68% 30.13 in 10.0 mi Calm Calm - N/A   Clear
7:15 PM 19.4 °F - 12.2 °F 74% 30.13 in 10.0 mi Calm Calm - N/A   Clear
7:35 PM 19.4 °F - 12.2 °F 74% 30.12 in 10.0 mi Calm Calm - N/A   Clear
7:55 PM 15.8 °F - 10.4 °F 79% 30.13 in 10.0 mi Calm Calm - N/A   Clear
8:15 PM 12.2 °F - 8.6 °F 85% 30.13 in 10.0 mi Calm Calm - N/A   Clear
8:35 PM 12.2 °F - 10.4 °F 92% 30.13 in 10.0 mi Calm Calm - N/A   Clear
8:55 PM 12.2 °F - 8.6 °F 85% 30.12 in 10.0 mi Calm Calm - N/A   Clear
9:15 PM 12.2 °F - 8.6 °F 85% 30.12 in 10.0 mi Calm Calm - N/A   Clear
9:35 PM 12.2 °F - 8.6 °F 85% 30.12 in 10.0 mi Calm Calm - N/A   Clear
9:55 PM 12.2 °F - 8.6 °F 85% 30.11 in 10.0 mi Calm Calm - N/A   Clear
10:15 PM 10.4 °F - 6.8 °F 85% 30.11 in 10.0 mi Calm Calm - N/A   Clear
10:35 PM 8.6 °F - 3.2 °F 79% 30.11 in 10.0 mi Calm Calm - N/A   Clear
11:15 PM 8.6 °F - 5.0 °F 85% 30.11 in 10.0 mi Calm Calm - N/A   Clear
11:35 PM 8.6 °F - 5.0 °F 85% 30.10 in 10.0 mi Calm Calm - N/A   Clear
11:55 PM 6.8 °F - 3.2 °F 85% 30.09 in 10.0 mi Calm Calm - N/A   Clear